Location: Bathsheba
(13.2167°N, 59.5167°W)
Time: 23:59:52
(UTC+00:00)

Meteor 1-12 Rocket - Pass Details

Date: 18 September 2020
Orbit: 854 x 927 km, 81.2° (Epoch: 20 October)

Event Time Altitude Azimuth Distance (km) Brightness Sun altitude
Rises 23:05:31 0° 185° (S) 3,562 7.4 -17.6°
Reaches altitude 10° 23:08:00 10° 185° (S) 2,617 6.7 -18.2°
Maximum altitude 23:14:00 90° 274° (W) 920 4.3 -19.6°
Drops below altitude 10° 23:19:55 10° 5° (N) 2,584 6.7 -21.0°
Sets 23:22:21 0° 6° (N) 3,516 7.4 -21.6°
